Location: Unspecified
(48.2082°N, 0.0000°E)
Time: 13:02:45
(UTC+00:00)

Vanguard 1 - Pass Details

Date: 25 June 2019
Orbit: 655 x 3829 km, 34.2° (Epoch: 16 August)

Event Time Altitude Azimuth Distance (km) Brightness Sun altitude
Rises 06:53:06 0° 270° (W) 6,094 13.5 25.5°
Reaches altitude 10° 06:58:50 10° 258° (WSW) 4,450 12.9 26.4°
Maximum altitude 07:06:28 21° 215° (SW) 2,750 12.2 27.7°
Drops below altitude 10° 07:11:44 10° 168° (SSE) 2,924 12.7 28.5°
Sets 07:14:34 0° 151° (SSE) 3,568 13.3 29.0°
